カタログに戻る

S-Net C

S-NET C

運用中アマチュア無線SSO
NORAD 43189·PAYLOAD·🇩🇪 Germany

打ち上げ Feb 1, 2018 から Vostochny Cosmodrome

Loading…

次のパス (今後24時間)

TLE

最新Source: AMSAT

元期: Sep 14, 2026, 04:41 UTC

1 43189U 18014K   26257.19545971  .00003538  00000-0  18053-3 0  9991
2 43189  97.5287 161.7281 0011571  63.0640 297.1774 15.17331282470804

AllMySatでS-Net Cをリアルタイム追跡

Download on the App Store